STARLINK-2502, 48327

Orbit data source: Space-Track

STARLINK-2502, 48327 is a payload satellite owned by SpaceX/Seattle (US) in LEO that was launched on Thu, 29 Apr 2021 UTC via an FALCON 9 launch vehicle from the Air Force Eastern Test Range (AFETR). Payload-class satellites include a variety of spacecraft equipped with specific instruments for various scientific and technological missions. These include communications satellites like Starlink; space stations such as the ISS; scientific satellites like the Hubble; Earth observation satellites from companies like Planet Labs, Umbra, and HawkEye 360; GPS; miniature CubeSats for education and research; and military/defense satellites.

Loading next visibility...
Identifier
48327, 2021-036BD
Orbit
LEO
Country
Flag of USUS
Related business
Manufacturer
SpaceX/Seattle
Mission
Operational Commercial Communications
Bus & Motor
STARLINK, Unknown motor
Mass
260 kg wet, ~248 kg dry
Launch date (UTC)
2021-04-29 (4 years ago)
Launch vehicle
FALCON 9
Launch site
Air Force Eastern Test Range (AFETR)
Object type
Payload
Rocket body
Debris
Shape & HBR
Box + 1 Pan, 10.1 m
Radar Cross Section
13.562 m², Large (>1 m²)

Expand to show TLE details & history
Last TLE update: 7 hours ago

TLE from 7 hours ago
0 STARLINK-2502
1 48327U 21036BD  25296.55345741  .00011785  00000-0  80805-3 0  9990
2 48327  53.0547 357.2482 0001322 102.2542 257.8595 15.06432912247361
Epoch: 2025-10-23T13:16Z
TLE epoch observation values (Epoch: 2025-10-23T13:16:58.720Z)
Latitude
-0.00002°
Longitude
125.79246°
Altitude
548.183 km
Speed
7.589 km/s
True Right ascension
23h 48m 59s
True Declination
0° 00' 00"
Sunlit
Object was in full shadow at epoch
Visualization orbit readout
Latitude
Unknown
Longitude
Unknown
Altitude
Unknown
Speed
Unknown
Apparent Right ascension
Unknown
Apparent Declination
Unknown
Sunlit
N/A
Visualization observer readout
Local Sidereal Time
14:59:42
Azimuth
Unknown
Elevation
Unknown
Doppler factor
Unknown
Orbital elements
Apogee altitude
548.297 km
Perigee altitude
546.466 km
Semi-major axis
6,925.518 km
Eccentricity
0.00013
Inclination
53.0547°
RAAN
357.2482°
Arg. of periapsis
102.2542°
True anomaly
257.84469°
Mean anomaly
257.8595°
Eccentric anomaly
257.8521°
Mean motion
3.76586 °/min
Orbital period
95.6 mins
BSTAR
0.00080805
Loading maneuver chart data...
Computing Atmospheric mass density...
Loading historical data...
Loading historical data...
Loading historical data...
Loading historical data...
Loading historical data...
Loading historical data...
Loading historical data...

Documentation

Showing up to 5 results
|